Погода в Струговой Буде

Россия / Брянская область     53°02′08″N   32°01′11″E
темп.,
°C
ветер,
м/с
пор.,
м/с
влажн.,
%
обл.,
%
осадки,
мм/ч
давл.,
гПа
погр.,
м
15 мая, сб
сб1500:00+12ю23905 0.0 100625
03:00+11ю36945 0.0 100696
06:00+10ююз35958 0.0 1007113
09:00+15ююз46799 0.0 1008481
12:00+18ююз576739 0.4 10071200
15:00+18зюз566855 2.5 10071285
18:00+17юз567718 1.1 1008873
21:00+13ююз359158 1.8 100989
16 мая, вс
вс1600:00+12ююз4794100 0.1 1009144
03:00+11ююз3896100 0.1 1010167
06:00+11ююз369779 0.0 1011146
09:00+15юз348420 0.0 1012476
12:00+19ююз336759 0.1 10121288
15:00+19ю3465100 0.3 10121202
18:00+20ююв2364100 0.1 1012957
21:00+15юв2279100 0.2 101218
17 мая, пн
пн1700:00+13вюв3386100 0.0 101237
03:00+12вюв349178 0.0 101147
06:00+12в3892100 0.0 1010154
09:00+17всв4780100 0.1 1009302
12:00+22в686769 0.3 1006970
15:00+24вюв7116169 0.3 10031548
18:00+22юв7116878 0.0 10021005
21:00+17вюв4119087 0.0 1001242
18 мая, вт
вт1800:00+16юз119693 0.1 100139
03:00+15юв4109960 0.8 1000277
06:00+14ююз3598100 0.3 1000390
09:00+13юз5896100 0.4 1003447
12:00+17юз567673 0.3 1004972
15:00+18ю6777100 1.1 10041049
18:00+17ююв467996 0.8 1004820
21:00+14ююз3494100 3.1 100490
19 мая, ср
ср1900:00+12з4996100 0.7 1004420
03:00+12з4896100 1.2 1005410
06:00+10з489898 0.0 1006326
09:00+13з687911 0.0 1007765
12:00+16з676596 0.1 10081468
15:00+15зсз4670100 0.6 10091072
18:00+15з4674100 0.4 1009646
21:00+11зсз2281100 0.5 101121